Content
SEND FEEDBACK

Daily
Averages
Monthly
Summary
United States of America

BARRINGTON, ILLINOIS


Home > North America > United States > Illinois
Elevation: 810 feet     Latitude: 42 10N     Longitude: 088 09W

WEATHER
 
SELECT A DAY
Number of Records: 199,650;   Date Range: 1/1/95 - 10/21/14
 
SHARE

PRINT THIS DATA

[ ← Previous Day ]
WEATHER ALMANAC - FEBRUARY 4, 2013
[ Next Day → ]
[ °C ]   °F
Weather ElementAverageHighLow
Temperature22.8 °F28.4 °F (12:49 pm)12.9 °F (11:51 pm)
Dewpoint19.5 °F23 °F (8:51 am)7 °F (11:51 pm)
Humidity87.2 %100 % (5:19 am)77 % (10:51 pm)
Barometer29.91 in29.99 in (1:51 am)29.83 in (12:49 pm)
Wind Speed9 mph18.4 mph (3:03 pm)
Weather ElementAverage
Visibility6.1 mi
Wind DirectionSE (135.3 °)

Weather ElementTotal
Precipitation0.16 in
Heating Degree Days44.4 (Base 65)
Averaged from 38 records on February 4, 2013
WEATHER CONDITIONS BREAKOUT
WIND DIRECTION BREAKOUT
WEATHER BY HOUR - FEBRUARY 4, 2013
[ °C ]   °F
Local TimeTemperatureDewpointHumidityBarometerVisibilityWind DirectionWind SpeedGust SpeedPrecipitationEventsConditions
1:24 AM19.4 °F17.6 °F93 %29.97 in1.5 miSE (130°)3.5 mph0.01 inSnowLight Snow
1:51 AM21.0 °F19.0 °F92 %29.99 in1.5 miESE (110°)4.6 mph0.01 inSnowLight Snow
2:14 AM21.2 °F19.4 °F93 %29.95 in2.5 miEast (100°)5.8 mph0.00 inSnowLight Snow
2:22 AM21.2 °F19.4 °F93 %29.95 in1.5 miEast (100°)6.9 mph0.00 inSnowLight Snow
2:47 AM21.2 °F19.4 °F93 %29.93 in1.5 miSE (130°)8.1 mph0.01 inSnowLight Snow
2:51 AM21.0 °F19.0 °F92 %29.96 in1.5 miSE (130°)6.9 mph0.02 inSnowLight Snow
3:09 AM21.2 °F19.4 °F93 %29.92 in1.0 miSE (130°)6.9 mph0.01 inSnowLight Snow
4:51 AM21.2 °F19.4 °F93 %29.89 in1.0 miEast (90°)5.8 mphSnowLight Snow
5:19 AM21.2 °F21.2 °F100 %29.89 in0.8 miEast (80°)3.5 mph0.01 inSnowLight Snow
5:51 AM21.9 °F21.0 °F96 %29.92 in0.8 miNE (50°)6.9 mph0.03 inSnowLight Snow
6:24 AM23.0 °F21.2 °F93 %29.87 in1.2 miENE (70°)9.2 mph0.02 inSnowLight Snow
6:38 AM23.0 °F21.2 °F93 %29.88 in1.8 miENE (60°)8.1 mph0.02 inSnowLight Snow
6:51 AM23.0 °F21.0 °F92 %29.91 in2.5 miENE (60°)9.2 mph0.02 inSnowLight Snow
6:58 AM23.0 °F21.2 °F93 %29.88 in2.5 miENE (60°)8.1 mph0.00 inSnowLight Snow
7:37 AM24.8 °F21.2 °F86 %29.86 in3.0 miESE (110°)8.1 mph0.00 inSnowLight Snow
7:51 AM25.0 °F21.9 °F88 %29.89 in4.0 miEast (90°)8.1 mph0.00 inSnowLight Snow
8:16 AM24.8 °F21.2 °F86 %29.87 in5.0 miENE (70°)8.1 mph0.00 inSnowLight Snow
8:51 AM25.0 °F23.0 °F92 %29.90 in6.0 miENE (60°)8.1 mph0.00 inSnowLight Snow
9:08 AM24.8 °F23.0 °F93 %29.86 in8.0 miEast (80°)6.9 mph0.00 inOvercast
9:51 AM26.1 °F21.9 °F84 %29.88 in9.0 miEast (80°)8.1 mph0.00 inOvercast
10:51 AM27.0 °F23.0 °F85 %29.88 in8.0 miEast (90°)6.9 mphOvercast
11:51 AM28.0 °F23.0 °F81 %29.88 in8.0 miNNE (30°)8.1 mph0.00 inOvercast
12:49 PM28.4 °F23.0 °F80 %29.83 in10.0 miNNE (20°)9.2 mph0.00 inOvercast
12:51 PM28.0 °F23.0 °F81 %29.86 in10.0 miNNE (20°)9.2 mph0.00 inOvercast
1:51 PM27.0 °F23.0 °F85 %29.87 in10.0 miNorth (10°)16.1 mph0.00 inOvercast
2:51 PM27.0 °F23.0 °F85 %29.89 in9.0 miNorth (10°)16.1 mphOvercast
3:03 PM26.6 °F21.2 °F80 %29.86 in9.0 miNNE (20°)18.4 mphOvercast
3:51 PM27.0 °F21.9 °F81 %29.87 in10.0 miNNE (20°)18.4 mphOvercast
4:51 PM24.1 °F19.9 °F84 %29.90 in10.0 miNorth (10°)16.1 mphOvercast
5:11 PM24.8 °F19.4 °F80 %29.88 in10.0 miNorth (350°)12.7 mphOvercast
5:51 PM23.0 °F19.0 °F85 %29.94 in10.0 miNorth (350°)12.7 mphOvercast
6:51 PM21.0 °F16.0 °F81 %29.96 in10.0 miNorth (350°)12.7 mphOvercast
7:14 PM19.4 °F15.8 °F86 %29.92 in10.0 miNorth (350°)12.7 mphMostly Cloudy
7:51 PM18.0 °F14.0 °F84 %29.96 in10.0 miNorth (350°)8.1 mphMostly Cloudy
8:51 PM19.0 °F14.0 °F81 %29.98 in10.0 miNNW (340°)5.8 mphMostly Cloudy
9:51 PM18.0 °F12.9 °F81 %29.97 in10.0 miNorth (350°)5.8 mphOvercast
10:51 PM15.1 °F9.0 °F77 %29.97 in10.0 miNNW (340°)8.1 mphMostly Cloudy
11:51 PM12.9 °F7.0 °F77 %29.98 in10.0 miNNW (340°)4.6 mphMostly Cloudy
Hourly data recorded from KORD, located miles away from Barrington, Illinois







STORIES FROM OUR PARTNERS